Location: W�rzburg
(49.7529°N, 9.8822°E)
Time: 02:58:05
(UTC+01:00)

ISS - Pass Details

Date: 12 January 2018
Orbit: 402 x 407 km, 51.6° (Epoch: 18 January)

Event Time Altitude Azimuth Distance (km) Brightness Sun altitude
Exits shadow 04:51:15 10° 94° (E) 1,466 -0.2 -32.0°
Drops below altitude 10° 04:51:15 10° 94° (E) 1,467 -0.2 -32.0°
Sets 04:53:20 0° 97° (E) 2,327 1.1 -31.6°
